Alamogordo, NM

11:20 AM MDT on June 28, 2017 (GMT -0600)
Alamogordo-White Sands Regional

Weather History for KALM - September, 2012

Change the Weather History Date:

Monday, September 17, 2012

  Actual Average Record
Temperature  
Mean Temperature 71 °F -  
Max Temperature 89 °F 86 °F 98 °F (1956)
Min Temperature 53 °F 57 °F 43 °F (1968)
Cooling Degree Days 6    
Growing Degree Days 21 (Base 50)    
Moisture  
Dew Point 30 °F    
Average Humidity 22    
Maximum Humidity 44    
Minimum Humidity 10    
Precipitation  
Precipitation 0.00 in - - ()
Sea Level Pressure  
Sea Level Pressure 30.02 in    
Wind  
Wind Speed 4 mph (NNW)    
Max Wind Speed 22 mph    
Max Gust Speed 37 mph    
Visibility 10 miles    
Events      
Averages and records for this station are not official NWS values.
T = Trace of Precipitation, MM = Missing Value Source: NWS Daily Summary

Daily Weather History Graph

Daily Weather History Graph

Search for Another Location

Airport or City:

Trip Planner

Search our weather history database for the weather conditions in past years. The results will help you decide how hot, cold, wet, or windy it might be!

Date:

Astronomy

Sep. 17, 2012 Rise Set
Actual Time 6:49 AM MDT 7:06 PM MDT
Civil Twilight 6:24 AM MDT 7:31 PM MDT
Nautical Twilight 5:55 AM MDT 8:00 PM MDT
Astronomical Twilight 5:26 AM MDT 8:29 PM MDT
Moon 8:31 AM MDT (9/17) 8:01 PM MDT (9/17)
Length of Visible Light 13h 06m
Length of Day
12h 17m
Waxing Crescent, 4% of the Moon is Illuminated
Sep 17
Waxing Crescent
Sep 22
First Quarter
Sep 29
Full
Oct 8
Last Quarter
Oct 15
New

Hourly Weather History & Observations

Time (MDT) Temp. Dew Point Humidity Pressure Visibility Wind Dir Wind Speed Gust Speed Precip Events Conditions
12:15 AM 60.8 °F 32.0 °F 34% 30.03 in 10.0 mi Calm Calm - N/A   Clear
12:35 AM 62.6 °F 32.0 °F 32% 30.02 in 10.0 mi Calm Calm - N/A   Clear
12:55 AM 62.6 °F 32.0 °F 32% 30.02 in 10.0 mi Calm Calm - N/A   Clear
1:15 AM 64.4 °F 32.0 °F 30% 30.02 in 10.0 mi Calm Calm - N/A   Clear
1:35 AM 62.6 °F 32.0 °F 32% 30.01 in 10.0 mi East 4.6 mph - N/A   Clear
1:55 AM 64.4 °F 32.0 °F 30% 30.01 in 10.0 mi East 3.5 mph - N/A   Clear
2:15 AM 62.6 °F 32.0 °F 32% 30.02 in 10.0 mi Calm Calm - N/A   Clear
2:35 AM 66.2 °F 32.0 °F 28% 30.02 in 10.0 mi NW 3.5 mph - N/A   Clear
2:55 AM 66.2 °F 30.2 °F 26% 30.02 in 10.0 mi Calm Calm - N/A   Clear
3:15 AM 59.0 °F 32.0 °F 36% 30.01 in 10.0 mi NNW 4.6 mph - N/A   Clear
3:55 AM 57.2 °F 32.0 °F 38% 30.01 in 10.0 mi North 3.5 mph - N/A   Clear
4:15 AM 59.0 °F 32.0 °F 36% 30.01 in 10.0 mi NW 3.5 mph - N/A   Clear
4:35 AM 57.2 °F 32.0 °F 38% 30.01 in 10.0 mi NNW 3.5 mph - N/A   Clear
4:55 AM 60.8 °F 32.0 °F 34% 30.01 in 10.0 mi NW 3.5 mph - N/A   Clear
5:15 AM 66.2 °F 28.4 °F 24% 30.02 in 10.0 mi Calm Calm - N/A   Clear
5:35 AM 59.0 °F 32.0 °F 36% 30.03 in 10.0 mi Calm Calm - N/A   Clear
6:15 AM 57.2 °F 32.0 °F 38% 30.03 in 10.0 mi NNE 5.8 mph - N/A   Clear
6:35 AM 57.2 °F 32.0 °F 38% 30.03 in 10.0 mi WNW 4.6 mph - N/A   Clear
6:55 AM 53.6 °F 32.0 °F 44% 30.04 in 10.0 mi Calm Calm - N/A   Clear
7:15 AM 53.6 °F 32.0 °F 44% 30.04 in 10.0 mi Calm Calm - N/A   Clear
7:35 AM 55.4 °F 32.0 °F 41% 30.05 in 10.0 mi ESE 4.6 mph - N/A   Clear
7:55 AM 60.8 °F 35.6 °F 39% 30.05 in 10.0 mi Calm Calm - N/A   Clear
8:15 AM 64.4 °F 32.0 °F 30% 30.06 in 10.0 mi Calm Calm - N/A   Clear
8:35 AM 66.2 °F 32.0 °F 28% 30.06 in 10.0 mi West 3.5 mph - N/A   Clear
8:55 AM 64.4 °F 33.8 °F 32% 30.07 in 10.0 mi Calm Calm - N/A   Clear
9:35 AM 68.0 °F 32.0 °F 26% 30.08 in 10.0 mi Calm Calm - N/A   Clear
9:55 AM 71.6 °F 32.0 °F 23% 30.08 in 7.0 mi Calm Calm - N/A   Clear
10:15 AM 73.4 °F 33.8 °F 23% 30.09 in 9.0 mi NW 3.5 mph - N/A   Clear
10:35 AM 75.2 °F 32.0 °F 21% 30.08 in 10.0 mi NW 4.6 mph - N/A   Clear
10:55 AM 80.6 °F 32.0 °F 17% 30.09 in 10.0 mi North 5.8 mph - N/A   Clear
11:15 AM 82.4 °F 28.4 °F 14% 30.08 in 7.0 mi NNW 17.3 mph 20.7 mph N/A   Clear
11:35 AM 84.2 °F 30.2 °F 14% 30.08 in 10.0 mi North 13.8 mph 18.4 mph N/A   Clear
11:55 AM 84.2 °F 30.2 °F 14% 30.07 in 10.0 mi NNW 11.5 mph 23.0 mph N/A   Clear
12:15 PM 86.0 °F 28.4 °F 12% 30.06 in 10.0 mi NNW 17.3 mph 20.7 mph N/A   Clear
12:35 PM 87.8 °F 28.4 °F 12% 30.05 in 10.0 mi NNW 16.1 mph 21.9 mph N/A   Clear
12:55 PM 86.0 °F 28.4 °F 12% 30.04 in 10.0 mi North 10.4 mph 17.3 mph N/A   Clear
1:15 PM 86.0 °F 28.4 °F 12% 30.03 in 10.0 mi NNW 5.8 mph - N/A   Clear
1:35 PM 87.8 °F 26.6 °F 11% 30.02 in 10.0 mi NW 9.2 mph - N/A   Clear
1:55 PM 89.6 °F 26.6 °F 10% 30.01 in 10.0 mi West 10.4 mph - N/A   Clear
2:15 PM 87.8 °F 26.6 °F 11% 30.00 in 10.0 mi NW 11.5 mph 18.4 mph N/A   Clear
2:35 PM 89.6 °F 24.8 °F 10% 29.99 in 10.0 mi WSW 5.8 mph 17.3 mph N/A   Clear
2:55 PM 89.6 °F 24.8 °F 10% 29.99 in 10.0 mi WNW 11.5 mph 20.7 mph N/A   Clear
3:15 PM 89.6 °F 24.8 °F 10% 29.98 in 10.0 mi NNW 8.1 mph 19.6 mph N/A   Clear
3:35 PM 89.6 °F 24.8 °F 10% 29.97 in 10.0 mi WNW 10.4 mph 23.0 mph N/A   Clear
3:55 PM 89.6 °F 24.8 °F 10% 29.96 in 10.0 mi West 11.5 mph 17.3 mph N/A   Clear
4:15 PM 89.6 °F 24.8 °F 10% 29.96 in 10.0 mi West 11.5 mph 16.1 mph N/A   Clear
4:55 PM 89.6 °F 24.8 °F 10% 29.95 in 10.0 mi NNW 6.9 mph - N/A   Clear
5:15 PM 89.6 °F 24.8 °F 10% 29.95 in 10.0 mi NW 9.2 mph - N/A   Clear
5:35 PM 87.8 °F 24.8 °F 10% 29.95 in 10.0 mi West 4.6 mph - N/A   Clear
5:55 PM 87.8 °F 24.8 °F 10% 29.95 in 10.0 mi WNW 4.6 mph - N/A   Clear
6:15 PM 86.0 °F 24.8 °F 11% 29.96 in 10.0 mi Calm Calm - N/A   Clear
6:35 PM 86.0 °F 26.6 °F 12% 29.96 in 10.0 mi Calm Calm - N/A   Clear
6:55 PM 82.4 °F 28.4 °F 14% 29.96 in 10.0 mi SSE 3.5 mph - N/A   Clear
7:15 PM 80.6 °F 26.6 °F 14% 29.96 in 10.0 mi SE 3.5 mph - N/A   Clear
7:35 PM 77.0 °F 28.4 °F 17% 29.96 in 10.0 mi ESE 4.6 mph - N/A   Clear
7:55 PM 73.4 °F 28.4 °F 19% 29.96 in 8.0 mi East 6.9 mph - N/A   Clear
8:15 PM 73.4 °F 28.4 °F 19% 29.97 in 10.0 mi ENE 8.1 mph - N/A   Clear
8:35 PM 75.2 °F 28.4 °F 18% 29.98 in 10.0 mi NE 9.2 mph - N/A   Clear
8:55 PM 75.2 °F 28.4 °F 18% 30.00 in 10.0 mi Calm Calm - N/A   Clear
9:15 PM 75.2 °F 28.4 °F 18% 30.01 in 10.0 mi East 5.8 mph - N/A   Partly Cloudy
9:35 PM 75.2 °F 28.4 °F 18% 30.01 in 10.0 mi SE 5.8 mph - N/A   Partly Cloudy
9:55 PM 73.4 °F 28.4 °F 19% 30.02 in 10.0 mi SSE 9.2 mph - N/A   Clear
10:15 PM 73.4 °F 28.4 °F 19% 30.01 in 10.0 mi SSE 8.1 mph - N/A   Clear
10:35 PM 71.6 °F 28.4 °F 20% 30.01 in 10.0 mi SSE 5.8 mph - N/A   Clear
10:55 PM 71.6 °F 30.2 °F 22% 30.03 in 10.0 mi East 13.8 mph 19.6 mph N/A   Clear
11:15 PM 75.2 °F 33.8 °F 22% 30.04 in 10.0 mi ENE 21.9 mph 36.8 mph N/A   Clear
11:35 PM 73.4 °F 35.6 °F 25% 30.04 in 8.0 mi East 21.9 mph 34.5 mph N/A   Clear
11:55 PM 73.4 °F 35.6 °F 25% 30.03 in 10.0 mi East 18.4 mph 26.5 mph N/A   Clear